TimeCDT,TemperatureF,Dew PointF,Humidity,Sea Level PressureIn,VisibilityMPH,Wind Direction,Wind SpeedMPH,Gust SpeedMPH,PrecipitationIn,Events,Conditions,WindDirDegrees,DateUTC
12:15 AM,29.5,26.6,89,30.17,10.0,NW,6.9,-,N/A,,Clear,310,2014-03-12 05:15:00
12:35 AM,29.7,26.2,87,30.17,10.0,NW,6.9,-,N/A,,Clear,310,2014-03-12 05:35:00
12:55 AM,29.5,26.4,88,30.17,10.0,WNW,9.2,-,N/A,,Clear,300,2014-03-12 05:55:00
1:15 AM,29.3,25.9,87,30.17,10.0,WNW,6.9,-,N/A,,Clear,290,2014-03-12 06:15:00
1:35 AM,28.8,25.5,88,30.17,10.0,WNW,5.8,-,N/A,,Clear,290,2014-03-12 06:35:00
1:55 AM,28.4,25.3,88,30.17,10.0,WNW,4.6,-,N/A,,Mostly Cloudy,290,2014-03-12 06:55:00
2:15 AM,29.1,25.9,88,30.17,10.0,West,6.9,-,N/A,,Overcast,280,2014-03-12 07:15:00
2:35 AM,29.7,26.4,88,30.17,10.0,West,8.1,-,N/A,,Overcast,280,2014-03-12 07:35:00
2:55 AM,30.0,26.6,87,30.17,10.0,West,6.9,-,N/A,,Mostly Cloudy,280,2014-03-12 07:55:00
3:15 AM,29.3,26.2,88,30.16,10.0,West,5.8,-,N/A,,Mostly Cloudy,280,2014-03-12 08:15:00
3:35 AM,29.7,26.4,88,30.15,10.0,West,5.8,-,N/A,,Overcast,270,2014-03-12 08:35:00
3:55 AM,29.3,26.2,88,30.15,10.0,West,3.5,-,N/A,,Overcast,280,2014-03-12 08:55:00
4:15 AM,28.2,25.2,88,30.14,10.0,West,6.9,-,N/A,,Scattered Clouds,260,2014-03-12 09:15:00
4:35 AM,28.9,25.5,87,30.14,10.0,West,6.9,-,N/A,,Clear,270,2014-03-12 09:35:00
4:55 AM,28.8,25.3,87,30.14,10.0,West,8.1,-,N/A,,Clear,270,2014-03-12 09:55:00
5:15 AM,27.5,24.4,88,30.14,10.0,West,6.9,-,N/A,,Clear,270,2014-03-12 10:15:00
5:35 AM,27.3,24.3,88,30.14,10.0,West,6.9,-,N/A,,Clear,270,2014-03-12 10:35:00
5:55 AM,27.1,23.9,88,30.14,10.0,West,8.1,-,N/A,,Clear,270,2014-03-12 10:55:00
6:15 AM,27.1,23.9,88,30.14,10.0,West,6.9,-,N/A,,Clear,270,2014-03-12 11:15:00
6:35 AM,27.5,24.1,87,30.14,10.0,West,8.1,-,N/A,,Clear,270,2014-03-12 11:35:00
6:55 AM,28.0,24.4,86,30.14,10.0,West,6.9,-,N/A,,Clear,270,2014-03-12 11:55:00
7:15 AM,28.4,24.8,86,30.14,10.0,West,9.2,-,N/A,,Clear,280,2014-03-12 12:15:00
7:35 AM,29.7,25.5,85,30.14,10.0,West,9.2,-,N/A,,Scattered Clouds,280,2014-03-12 12:35:00
7:55 AM,30.6,26.4,85,30.14,10.0,West,10.4,-,N/A,,Scattered Clouds,280,2014-03-12 12:55:00
8:15 AM,30.9,26.4,83,30.14,10.0,West,9.2,-,N/A,,Clear,280,2014-03-12 13:15:00
8:35 AM,32.5,27.7,82,30.14,10.0,WNW,11.5,-,N/A,,Clear,290,2014-03-12 13:35:00
8:55 AM,33.8,28.2,80,30.15,10.0,WNW,12.7,-,N/A,,Clear,290,2014-03-12 13:55:00
9:15 AM,34.9,28.6,78,30.15,10.0,WNW,13.8,17.3,N/A,,Clear,300,2014-03-12 14:15:00
9:35 AM,36.0,29.3,77,30.15,10.0,WNW,15.0,-,N/A,,Clear,300,2014-03-12 14:35:00
9:55 AM,37.6,29.5,73,30.15,10.0,WNW,15.0,20.7,N/A,,Clear,300,2014-03-12 14:55:00
10:15 AM,38.8,29.3,69,30.16,10.0,WNW,16.1,-,N/A,,Clear,300,2014-03-12 15:15:00
10:35 AM,40.3,28.9,64,30.16,10.0,NW,16.1,21.9,N/A,,Clear,310,2014-03-12 15:35:00
10:55 AM,41.9,27.9,58,30.16,10.0,WNW,19.6,-,N/A,,Clear,300,2014-03-12 15:55:00
11:15 AM,43.2,25.7,50,30.15,10.0,NW,16.1,24.2,N/A,,Clear,310,2014-03-12 16:15:00
11:35 AM,45.0,24.4,45,30.15,10.0,NW,17.3,21.9,N/A,,Clear,320,2014-03-12 16:35:00
11:55 AM,45.9,22.6,40,30.15,10.0,WNW,19.6,24.2,N/A,,Clear,300,2014-03-12 16:55:00
12:15 PM,47.1,20.8,35,30.15,10.0,WNW,17.3,25.3,N/A,,Clear,300,2014-03-12 17:15:00
12:35 PM,47.8,19.2,32,30.15,10.0,NW,17.3,-,N/A,,Clear,310,2014-03-12 17:35:00
12:55 PM,49.3,18.3,29,30.14,10.0,NW,17.3,24.2,N/A,,Clear,310,2014-03-12 17:55:00
1:15 PM,49.5,18.3,29,30.13,10.0,WNW,13.8,23.0,N/A,,Clear,300,2014-03-12 18:15:00
1:35 PM,50.4,18.5,28,30.13,10.0,WNW,17.3,23.0,N/A,,Clear,290,2014-03-12 18:35:00
1:55 PM,51.3,19.9,29,30.12,10.0,NW,20.7,25.3,N/A,,Clear,310,2014-03-12 18:55:00
2:15 PM,51.3,19.6,29,30.11,10.0,NW,13.8,25.3,N/A,,Clear,310,2014-03-12 19:15:00
2:35 PM,53.1,20.1,28,30.10,10.0,WNW,17.3,21.9,N/A,,Scattered Clouds,290,2014-03-12 19:35:00
2:55 PM,52.5,21.2,29,30.09,10.0,NW,19.6,27.6,N/A,,Scattered Clouds,310,2014-03-12 19:55:00
3:15 PM,53.8,19.9,27,30.07,10.0,WNW,18.4,27.6,N/A,,Scattered Clouds,300,2014-03-12 20:15:00
3:35 PM,53.8,19.2,26,30.07,10.0,NW,18.4,24.2,N/A,,Scattered Clouds,310,2014-03-12 20:35:00
3:55 PM,54.5,18.7,25,30.06,10.0,WNW,18.4,25.3,N/A,,Scattered Clouds,300,2014-03-12 20:55:00
4:15 PM,54.5,16.9,23,30.06,10.0,NW,20.7,25.3,N/A,,Clear,320,2014-03-12 21:15:00
4:35 PM,54.5,17.1,23,30.06,10.0,WNW,17.3,-,N/A,,Clear,300,2014-03-12 21:35:00
4:55 PM,54.5,17.8,24,30.05,10.0,WNW,20.7,25.3,N/A,,Clear,300,2014-03-12 21:55:00
5:15 PM,54.9,17.8,23,30.04,10.0,WNW,15.0,25.3,N/A,,Clear,300,2014-03-12 22:15:00
5:35 PM,55.2,18.0,23,30.04,10.0,WNW,17.3,20.7,N/A,,Clear,300,2014-03-12 22:35:00
5:55 PM,55.0,18.0,23,30.04,10.0,NW,19.6,23.0,N/A,,Clear,310,2014-03-12 22:55:00
6:15 PM,54.5,18.0,24,30.04,10.0,NW,17.3,-,N/A,,Clear,310,2014-03-12 23:15:00
6:35 PM,54.0,19.2,26,30.03,10.0,WNW,15.0,-,N/A,,Clear,300,2014-03-12 23:35:00
6:55 PM,52.9,19.0,26,30.03,10.0,WNW,11.5,-,N/A,,Clear,300,2014-03-12 23:55:00
7:15 PM,51.1,19.4,29,30.03,10.0,NW,10.4,-,N/A,,Clear,310,2014-03-13 00:15:00
7:35 PM,48.7,20.7,33,30.04,10.0,WNW,8.1,-,N/A,,Clear,300,2014-03-13 00:35:00
7:55 PM,45.9,21.7,38,30.04,10.0,WNW,9.2,-,N/A,,Clear,300,2014-03-13 00:55:00
8:15 PM,45.1,22.1,40,30.04,10.0,WNW,8.1,-,N/A,,Clear,290,2014-03-13 01:15:00
8:35 PM,43.5,22.5,43,30.04,10.0,WNW,8.1,-,N/A,,Clear,300,2014-03-13 01:35:00
8:55 PM,43.3,23.0,45,30.04,10.0,WNW,9.2,-,N/A,,Clear,300,2014-03-13 01:55:00
9:15 PM,42.3,23.2,47,30.05,10.0,WNW,8.1,-,N/A,,Clear,290,2014-03-13 02:15:00
9:35 PM,41.9,23.0,47,30.05,10.0,WNW,9.2,-,N/A,,Clear,300,2014-03-13 02:35:00
9:55 PM,41.0,23.0,49,30.05,10.0,WNW,8.1,-,N/A,,Clear,290,2014-03-13 02:55:00
10:15 PM,39.0,22.5,52,30.05,10.0,West,5.8,-,N/A,,Clear,270,2014-03-13 03:15:00
10:35 PM,36.0,23.0,59,30.05,10.0,West,4.6,-,N/A,,Clear,260,2014-03-13 03:35:00
10:55 PM,37.6,22.8,55,30.05,10.0,WNW,8.1,-,N/A,,Clear,290,2014-03-13 03:55:00
11:15 PM,34.7,23.5,64,30.05,10.0,West,8.1,-,N/A,,Clear,260,2014-03-13 04:15:00
11:35 PM,34.9,23.7,64,30.04,10.0,West,8.1,-,N/A,,Clear,270,2014-03-13 04:35:00
11:55 PM,35.8,24.3,63,30.04,10.0,West,9.2,-,N/A,,Clear,260,2014-03-13 04:55:00